Regional Weather Roundup
Issued by NWS

Home | Current Version | Previous Version | Text Only | Print | Product List | Glossary Off
Versions: 1 2 3 4 5 6 7 8 9 10 11 12 13 14 15 16 17 18 19 20 21 22 23 24 25 26 27 28 29 30 31 32 33 34 35 36 37 38 39 40 41 42 43 44 45 46 47 48 49 50

292
ASUS43 KBIS 300802
RWRND

NORTH DAKOTA REGIONAL WEATHER ROUNDUP
NATIONAL WEATHER SERVICE BISMARCK ND
300 AM CDT SAT APR 30 2016

NOTE: "FAIR" INDICATES FEW OR NO CLOUDS BELOW 12,000 FEET WITH NO
SIGNIFICANT WEATHER AND/OR OBSTRUCTIONS TO VISIBILITY.


NDZ001>003-009>011-017-300900-
NORTHWEST NORTH DAKOTA

CITY           SKY/WX    TMP DP  RH WIND       PRES   REMARKS
WILLISTON      CLEAR     37  28  70 NW5       30.17R
MINOT          CLEAR     41  28  60 NE8       30.19S
MINOT AFB      CLEAR     42  29  58 E10       30.19R
$$

NDZ018>021-031>035-040>046-300900-
SOUTHWEST NORTH DAKOTA

CITY           SKY/WX    TMP DP  RH WIND       PRES   REMARKS
BISMARCK       CLEAR     40  33  76 NE9       30.13F
DICKINSON      CLOUDY    35  29  78 NE8       30.11R
GARRISON         N/A     45  28  51 E14       30.16S
HETTINGER ARPT PTCLDY    37  32  82 CALM      30.09F
$$

NDZ004>008-012>016-024-026-027-054-300900-
NORTHEAST NORTH DAKOTA

CITY           SKY/WX    TMP DP  RH WIND       PRES   REMARKS
GRAND FORKS    CLEAR     40  31  70 E8        30.20R
GRND FRKS AFB  CLEAR     40  31  69 E6        30.20R
DEVILS LAKE    CLEAR     38  30  73 NE8       30.20S
$$

NDZ022-023-025-028>030-036>039-047>053-300900-
SOUTHEAST NORTH DAKOTA

CITY           SKY/WX    TMP DP  RH WIND       PRES   REMARKS
FARGO          CLEAR     46  33  60 E12       30.16R
JAMESTOWN      CLEAR     42  32  67 NE12      30.12S
$$





USA.gov is the U.S. government's official web portal to all federal, state and local government web resources and services.